Time,TemperatureF,DewpointF,PressureIn,WindDirection,WindDirectionDegrees,WindSpeedMPH,WindSpeedGustMPH,Humidity,HourlyPrecipIn,Conditions,Clouds,dailyrainin,SoftwareType,DateUTC
2013-09-22 00:02:00,57.1,57.0,29.67,SW,225,3.7,7.0,99,0.00,,,0.00,Rainwise IP-100,2013-09-22 07:02:00,
2013-09-22 00:07:00,57.1,57.0,29.67,SW,225,7.2,7.2,99,0.00,,,0.00,Rainwise IP-100,2013-09-22 07:07:00,
2013-09-22 00:12:00,57.1,57.0,29.67,SW,225,3.7,8.0,99,0.00,,,0.00,Rainwise IP-100,2013-09-22 07:12:00,
2013-09-22 00:17:00,57.0,57.0,29.67,SW,225,6.1,7.0,99,0.00,,,0.00,Rainwise IP-100,2013-09-22 07:17:00,
2013-09-22 00:22:00,56.9,57.0,29.67,SW,225,4.9,10.0,99,0.00,,,0.00,Rainwise IP-100,2013-09-22 07:22:00,
2013-09-22 00:27:00,56.8,56.0,29.67,WSW,247,2.3,7.0,99,0.00,,,0.00,Rainwise IP-100,2013-09-22 07:27:00,
2013-09-22 00:32:00,56.7,56.0,29.67,SSW,202,5.1,7.0,99,0.00,,,0.00,Rainwise IP-100,2013-09-22 07:32:00,
2013-09-22 00:37:00,56.7,56.0,29.67,SSW,202,0.0,5.0,99,0.00,,,0.00,Rainwise IP-100,2013-09-22 07:37:00,
2013-09-22 00:42:00,56.8,56.0,29.68,SW,225,3.5,5.0,99,0.00,,,0.00,Rainwise IP-100,2013-09-22 07:42:00,
2013-09-22 00:47:00,56.8,56.0,29.67,West,270,3.0,6.0,99,0.00,,,0.00,Rainwise IP-100,2013-09-22 07:47:00,
2013-09-22 00:52:00,56.8,56.0,29.67,SW,225,4.7,5.0,99,0.00,,,0.00,Rainwise IP-100,2013-09-22 07:52:00,
2013-09-22 00:57:00,56.8,56.0,29.68,SW,225,1.2,6.0,99,0.00,,,0.00,Rainwise IP-100,2013-09-22 07:57:00,
2013-09-22 01:02:00,56.7,56.0,29.68,SSW,202,1.9,7.0,100,0.00,,,0.00,Rainwise IP-100,2013-09-22 08:02:00,
2013-09-22 01:07:00,56.7,56.0,29.67,SW,225,3.3,6.0,100,0.00,,,0.00,Rainwise IP-100,2013-09-22 08:07:00,
2013-09-22 01:12:00,56.7,56.0,29.67,WSW,247,5.6,6.0,100,0.00,,,0.00,Rainwise IP-100,2013-09-22 08:12:00,
2013-09-22 01:17:00,56.7,56.0,29.67,SW,225,4.9,7.0,100,0.00,,,0.00,Rainwise IP-100,2013-09-22 08:17:00,
2013-09-22 01:22:00,56.7,56.0,29.67,SSW,202,4.4,7.0,100,0.00,,,0.00,Rainwise IP-100,2013-09-22 08:22:00,
2013-09-22 01:27:00,56.7,56.0,29.68,SSW,202,4.7,6.0,100,0.00,,,0.00,Rainwise IP-100,2013-09-22 08:27:00,
2013-09-22 01:32:00,56.7,56.0,29.68,SW,225,2.3,6.0,100,0.00,,,0.00,Rainwise IP-100,2013-09-22 08:32:00,
2013-09-22 01:37:00,56.7,56.0,29.68,WSW,247,3.0,5.0,99,0.00,,,0.00,Rainwise IP-100,2013-09-22 08:37:00,
2013-09-22 01:42:00,56.6,56.0,29.68,SSW,202,3.3,6.0,99,0.00,,,0.00,Rainwise IP-100,2013-09-22 08:42:00,
2013-09-22 01:47:00,56.5,56.0,29.68,SW,225,3.5,7.0,99,0.00,,,0.00,Rainwise IP-100,2013-09-22 08:47:00,
2013-09-22 01:52:00,56.4,56.0,29.68,SW,225,3.7,7.0,99,0.00,,,0.00,Rainwise IP-100,2013-09-22 08:52:00,
2013-09-22 01:57:00,56.5,56.0,29.69,SSW,202,3.7,7.0,99,0.00,,,0.00,Rainwise IP-100,2013-09-22 08:57:00,
2013-09-22 02:02:00,56.5,56.0,29.69,SW,225,2.3,7.0,99,0.00,,,0.00,Rainwise IP-100,2013-09-22 09:02:00,
2013-09-22 02:07:00,56.5,56.0,29.69,WSW,247,2.6,5.0,99,0.00,,,0.00,Rainwise IP-100,2013-09-22 09:07:00,
2013-09-22 02:12:00,56.4,56.0,29.68,SW,225,2.8,6.0,99,0.00,,,0.00,Rainwise IP-100,2013-09-22 09:12:00,
2013-09-22 02:17:00,56.3,56.0,29.69,SW,225,1.9,5.0,99,0.00,,,0.00,Rainwise IP-100,2013-09-22 09:17:00,
2013-09-22 02:22:00,56.3,56.0,29.68,WSW,247,3.3,6.0,99,0.00,,,0.00,Rainwise IP-100,2013-09-22 09:22:00,
2013-09-22 02:27:00,56.3,56.0,29.69,SSW,202,4.4,5.0,99,0.00,,,0.00,Rainwise IP-100,2013-09-22 09:27:00,
2013-09-22 02:32:00,56.3,56.0,29.68,SW,225,4.0,6.0,99,0.00,,,0.00,Rainwise IP-100,2013-09-22 09:32:00,
2013-09-22 02:37:00,56.3,56.0,29.69,SW,225,4.2,8.0,99,0.00,,,0.00,Rainwise IP-100,2013-09-22 09:37:00,
2013-09-22 02:42:00,56.3,56.0,29.68,SW,225,4.9,7.0,99,0.00,,,0.00,Rainwise IP-100,2013-09-22 09:42:00,
2013-09-22 02:47:00,56.3,56.0,29.69,SW,225,2.6,6.0,99,0.00,,,0.00,Rainwise IP-100,2013-09-22 09:47:00,
2013-09-22 02:52:00,56.2,56.0,29.68,WSW,247,3.7,5.0,99,0.00,,,0.00,Rainwise IP-100,2013-09-22 09:52:00,
2013-09-22 02:57:00,56.0,56.0,29.68,SW,225,2.1,5.0,99,0.00,,,0.00,Rainwise IP-100,2013-09-22 09:57:00,
2013-09-22 03:02:00,55.9,56.0,29.68,South,180,4.4,4.4,99,0.00,,,0.00,Rainwise IP-100,2013-09-22 10:02:00,
2013-09-22 03:07:00,55.7,56.0,29.68,SW,225,1.9,4.0,99,0.00,,,0.00,Rainwise IP-100,2013-09-22 10:07:00,
2013-09-22 03:12:00,55.6,56.0,29.68,SSW,202,3.5,5.0,100,0.00,,,0.00,Rainwise IP-100,2013-09-22 10:12:00,
2013-09-22 03:17:00,55.6,56.0,29.68,SSW,202,2.3,6.0,100,0.00,,,0.00,Rainwise IP-100,2013-09-22 10:17:00,
2013-09-22 03:22:00,55.7,56.0,29.68,SSW,202,4.4,6.0,100,0.00,,,0.00,Rainwise IP-100,2013-09-22 10:22:00,
2013-09-22 03:27:00,55.7,56.0,29.68,SSW,202,4.2,6.0,100,0.00,,,0.00,Rainwise IP-100,2013-09-22 10:27:00,
2013-09-22 03:32:00,55.7,56.0,29.68,SSW,202,2.8,5.0,100,0.00,,,0.00,Rainwise IP-100,2013-09-22 10:32:00,
2013-09-22 03:37:00,55.7,56.0,29.68,SSW,202,4.7,4.7,100,0.00,,,0.00,Rainwise IP-100,2013-09-22 10:37:00,
2013-09-22 03:42:00,55.7,56.0,29.68,SSW,202,4.2,5.0,100,0.00,,,0.00,Rainwise IP-100,2013-09-22 10:42:00,
2013-09-22 03:47:00,55.7,56.0,29.68,WSW,247,4.0,4.0,100,0.00,,,0.00,Rainwise IP-100,2013-09-22 10:47:00,
2013-09-22 03:52:00,55.7,56.0,29.68,SW,225,2.1,4.0,100,0.00,,,0.00,Rainwise IP-100,2013-09-22 10:52:00,
2013-09-22 04:04:00,55.7,56.0,29.68,SW,225,1.2,5.0,100,0.00,,,0.00,Rainwise IP-100,2013-09-22 11:04:00,
2013-09-22 04:09:00,55.6,56.0,29.68,WSW,247,2.6,4.0,100,0.00,,,0.00,Rainwise IP-100,2013-09-22 11:09:00,
2013-09-22 04:14:00,55.4,55.0,29.69,WSW,247,1.2,4.0,100,0.00,,,0.00,Rainwise IP-100,2013-09-22 11:14:00,
2013-09-22 04:19:00,55.4,55.0,29.68,SW,225,1.9,4.0,100,0.00,,,0.00,Rainwise IP-100,2013-09-22 11:19:00,
2013-09-22 04:24:00,55.4,55.0,29.68,WSW,247,3.5,3.5,100,0.00,,,0.00,Rainwise IP-100,2013-09-22 11:24:00,
2013-09-22 04:29:00,55.4,55.0,29.69,WSW,247,1.2,3.0,100,0.00,,,0.00,Rainwise IP-100,2013-09-22 11:29:00,
2013-09-22 04:34:00,55.4,55.0,29.69,WSW,247,2.6,3.0,100,0.00,,,0.00,Rainwise IP-100,2013-09-22 11:34:00,
2013-09-22 04:39:00,55.2,55.0,29.68,SW,225,0.0,3.0,100,0.00,,,0.00,Rainwise IP-100,2013-09-22 11:39:00,
2013-09-22 04:44:00,55.1,55.0,29.68,WSW,247,0.0,2.0,100,0.00,,,0.00,Rainwise IP-100,2013-09-22 11:44:00,
2013-09-22 04:49:00,55.1,55.0,29.69,WSW,247,1.9,4.0,100,0.00,,,0.00,Rainwise IP-100,2013-09-22 11:49:00,
2013-09-22 04:54:00,55.0,55.0,29.69,WSW,247,1.9,4.0,100,0.00,,,0.00,Rainwise IP-100,2013-09-22 11:54:00,
2013-09-22 04:59:00,55.0,55.0,29.69,SW,225,2.8,5.0,100,0.00,,,0.00,Rainwise IP-100,2013-09-22 11:59:00,
2013-09-22 05:04:00,55.1,55.0,29.69,SW,225,1.2,4.0,100,0.00,,,0.00,Rainwise IP-100,2013-09-22 12:04:00,
2013-09-22 05:09:00,55.2,55.0,29.69,SW,225,3.5,4.0,100,0.00,,,0.00,Rainwise IP-100,2013-09-22 12:09:00,
2013-09-22 05:14:00,55.2,55.0,29.70,SSW,202,2.3,3.0,100,0.00,,,0.00,Rainwise IP-100,2013-09-22 12:14:00,
2013-09-22 05:19:00,55.2,55.0,29.70,SSW,202,3.0,4.0,100,0.00,,,0.00,Rainwise IP-100,2013-09-22 12:19:00,
2013-09-22 05:24:00,55.3,55.0,29.69,SSW,202,1.6,4.0,100,0.00,,,0.00,Rainwise IP-100,2013-09-22 12:24:00,
2013-09-22 05:29:00,55.4,55.0,29.69,SW,225,4.2,6.0,100,0.00,,,0.00,Rainwise IP-100,2013-09-22 12:29:00,
2013-09-22 05:34:00,55.4,55.0,29.69,SSW,202,2.3,6.0,100,0.00,,,0.00,Rainwise IP-100,2013-09-22 12:34:00,
2013-09-22 05:39:00,55.4,55.0,29.69,SSW,202,1.6,3.0,100,0.00,,,0.00,Rainwise IP-100,2013-09-22 12:39:00,
2013-09-22 05:44:00,55.4,55.0,29.69,SSW,202,2.1,5.0,100,0.00,,,0.00,Rainwise IP-100,2013-09-22 12:44:00,
2013-09-22 05:49:00,55.4,55.0,29.70,SSW,202,2.1,4.0,100,0.00,,,0.00,Rainwise IP-100,2013-09-22 12:49:00,
2013-09-22 05:54:00,55.4,55.0,29.70,WSW,247,1.9,5.0,100,0.00,,,0.00,Rainwise IP-100,2013-09-22 12:54:00,
2013-09-22 05:59:00,55.3,55.0,29.70,SW,225,1.6,5.0,100,0.00,,,0.00,Rainwise IP-100,2013-09-22 12:59:00,
2013-09-22 06:04:00,55.3,55.0,29.70,SW,225,2.1,4.0,100,0.00,,,0.00,Rainwise IP-100,2013-09-22 13:04:00,
2013-09-22 06:09:00,55.2,55.0,29.70,SW,225,1.6,5.0,100,0.00,,,0.00,Rainwise IP-100,2013-09-22 13:09:00,
2013-09-22 06:14:00,55.0,55.0,29.70,SW,225,1.6,5.0,100,0.00,,,0.00,Rainwise IP-100,2013-09-22 13:14:00,
2013-09-22 06:19:00,55.0,55.0,29.70,SW,225,1.4,5.0,100,0.00,,,0.00,Rainwise IP-100,2013-09-22 13:19:00,
2013-09-22 06:24:00,54.9,55.0,29.70,WSW,247,4.0,4.0,100,0.00,,,0.00,Rainwise IP-100,2013-09-22 13:24:00,
2013-09-22 06:29:00,54.8,54.0,29.70,WSW,247,2.8,4.0,100,0.00,,,0.00,Rainwise IP-100,2013-09-22 13:29:00,
2013-09-22 06:34:00,54.6,54.0,29.70,SSW,202,1.4,3.0,100,0.00,,,0.00,Rainwise IP-100,2013-09-22 13:34:00,
2013-09-22 06:39:00,54.5,54.0,29.70,WSW,247,1.6,4.0,100,0.00,,,0.00,Rainwise IP-100,2013-09-22 13:39:00,
2013-09-22 06:44:00,54.4,54.0,29.70,WSW,247,2.8,4.0,100,0.00,,,0.00,Rainwise IP-100,2013-09-22 13:44:00,
2013-09-22 06:49:00,54.2,54.0,29.70,WSW,247,2.1,3.0,100,0.00,,,0.00,Rainwise IP-100,2013-09-22 13:49:00,
2013-09-22 06:54:00,54.1,54.0,29.70,WSW,247,2.1,3.0,100,0.00,,,0.00,Rainwise IP-100,2013-09-22 13:54:00,
2013-09-22 06:59:00,54.1,54.0,29.71,SW,225,2.8,4.0,100,0.00,,,0.00,Rainwise IP-100,2013-09-22 13:59:00,
2013-09-22 07:04:00,54.0,54.0,29.71,WSW,247,2.8,4.0,100,0.00,,,0.00,Rainwise IP-100,2013-09-22 14:04:00,
2013-09-22 07:09:00,53.9,54.0,29.71,WSW,247,4.0,4.0,100,0.00,,,0.00,Rainwise IP-100,2013-09-22 14:09:00,
2013-09-22 07:14:00,53.7,53.0,29.71,West,270,1.2,4.0,100,0.00,,,0.00,Rainwise IP-100,2013-09-22 14:14:00,
2013-09-22 07:19:00,53.6,53.0,29.72,West,270,2.1,3.0,100,0.00,,,0.00,Rainwise IP-100,2013-09-22 14:19:00,
2013-09-22 07:24:00,53.6,53.0,29.72,WSW,247,1.6,4.0,100,0.00,,,0.00,Rainwise IP-100,2013-09-22 14:24:00,
2013-09-22 07:29:00,53.6,53.0,29.72,WSW,247,4.9,5.0,100,0.00,,,0.00,Rainwise IP-100,2013-09-22 14:29:00,
2013-09-22 07:34:00,53.6,53.0,29.72,WSW,247,2.3,5.0,100,0.00,,,0.00,Rainwise IP-100,2013-09-22 14:34:00,
2013-09-22 07:39:00,53.6,53.0,29.72,SW,225,2.1,3.0,100,0.00,,,0.00,Rainwise IP-100,2013-09-22 14:39:00,
2013-09-22 07:44:00,53.6,53.0,29.72,WSW,247,2.3,2.3,100,0.00,,,0.00,Rainwise IP-100,2013-09-22 14:44:00,
2013-09-22 07:49:00,53.8,53.0,29.71,WSW,247,0.0,2.0,100,0.00,,,0.00,Rainwise IP-100,2013-09-22 14:49:00,
2013-09-22 07:54:00,54.1,54.0,29.71,WSW,247,0.0,0.0,100,0.00,,,0.00,Rainwise IP-100,2013-09-22 14:54:00,
2013-09-22 07:59:00,54.6,54.0,29.71,WSW,247,0.0,0.0,100,0.00,,,0.00,Rainwise IP-100,2013-09-22 14:59:00,
2013-09-22 08:04:00,55.3,55.0,29.72,WSW,247,0.0,0.0,100,0.00,,,0.00,Rainwise IP-100,2013-09-22 15:04:00,
2013-09-22 08:09:00,56.0,56.0,29.72,WSW,247,0.0,0.0,100,0.00,,,0.00,Rainwise IP-100,2013-09-22 15:09:00,
2013-09-22 08:14:00,55.9,56.0,29.73,WNW,292,2.1,2.1,100,0.00,,,0.00,Rainwise IP-100,2013-09-22 15:14:00,
2013-09-22 08:19:00,55.3,55.0,29.73,West,270,1.9,3.0,100,0.00,,,0.00,Rainwise IP-100,2013-09-22 15:19:00,
2013-09-22 08:24:00,55.1,55.0,29.72,WNW,292,2.1,2.1,100,0.00,,,0.00,Rainwise IP-100,2013-09-22 15:24:00,
2013-09-22 08:29:00,55.3,55.0,29.73,WNW,292,0.0,2.0,100,0.00,,,0.00,Rainwise IP-100,2013-09-22 15:29:00,
2013-09-22 08:34:00,55.6,56.0,29.73,WNW,292,0.0,1.0,100,0.00,,,0.00,Rainwise IP-100,2013-09-22 15:34:00,
2013-09-22 08:39:00,56.6,56.0,29.73,WNW,292,0.0,0.0,100,0.00,,,0.00,Rainwise IP-100,2013-09-22 15:39:00,
2013-09-22 08:44:00,57.8,57.0,29.73,WNW,292,0.0,0.0,100,0.00,,,0.00,Rainwise IP-100,2013-09-22 15:44:00,
2013-09-22 08:49:00,59.1,59.0,29.73,WNW,292,0.0,0.0,100,0.00,,,0.00,Rainwise IP-100,2013-09-22 15:49:00,
2013-09-22 08:54:00,59.4,59.0,29.73,ESE,112,1.4,3.0,99,0.00,,,0.00,Rainwise IP-100,2013-09-22 15:54:00,
2013-09-22 08:59:00,58.8,58.0,29.74,WNW,292,1.6,3.0,97,0.00,,,0.00,Rainwise IP-100,2013-09-22 15:59:00,
2013-09-22 09:04:00,58.2,57.0,29.74,WNW,292,1.9,4.0,96,0.00,,,0.00,Rainwise IP-100,2013-09-22 16:04:00,
2013-09-22 09:09:00,57.9,57.0,29.74,SSW,202,2.8,4.0,97,0.00,,,0.00,Rainwise IP-100,2013-09-22 16:09:00,
2013-09-22 09:14:00,58.3,57.0,29.74,SW,225,3.0,4.0,97,0.00,,,0.00,Rainwise IP-100,2013-09-22 16:14:00,
2013-09-22 09:19:00,58.5,58.0,29.74,WNW,292,4.0,6.0,97,0.00,,,0.00,Rainwise IP-100,2013-09-22 16:19:00,
2013-09-22 09:24:00,58.9,57.0,29.74,SSW,202,4.4,6.0,96,0.00,,,0.00,Rainwise IP-100,2013-09-22 16:24:00,
2013-09-22 09:29:00,59.3,57.0,29.75,West,270,1.4,6.0,95,0.00,,,0.00,Rainwise IP-100,2013-09-22 16:29:00,
2013-09-22 09:34:00,59.4,57.0,29.75,SSW,202,3.0,6.0,95,0.00,,,0.00,Rainwise IP-100,2013-09-22 16:34:00,
2013-09-22 09:39:00,59.2,57.0,29.75,SW,225,1.4,7.0,94,0.00,,,0.00,Rainwise IP-100,2013-09-22 16:39:00,
2013-09-22 09:44:00,59.3,57.0,29.75,West,270,4.2,5.0,94,0.00,,,0.00,Rainwise IP-100,2013-09-22 16:44:00,
2013-09-22 09:49:00,59.4,57.0,29.76,SW,225,1.2,5.0,94,0.00,,,0.00,Rainwise IP-100,2013-09-22 16:49:00,
2013-09-22 09:54:00,59.5,57.0,29.75,WSW,247,3.3,4.0,93,0.00,,,0.00,Rainwise IP-100,2013-09-22 16:54:00,
2013-09-22 09:59:00,59.6,57.0,29.76,WSW,247,2.1,5.0,93,0.00,,,0.00,Rainwise IP-100,2013-09-22 16:59:00,
2013-09-22 10:04:00,60.0,57.0,29.76,SW,225,3.3,4.0,92,0.00,,,0.00,Rainwise IP-100,2013-09-22 17:04:00,
2013-09-22 10:09:00,60.4,57.0,29.76,SSW,202,1.4,5.0,91,0.00,,,0.00,Rainwise IP-100,2013-09-22 17:09:00,
2013-09-22 10:14:00,60.7,57.0,29.76,SW,225,2.8,6.0,89,0.00,,,0.00,Rainwise IP-100,2013-09-22 17:14:00,
2013-09-22 10:19:00,61.3,57.0,29.76,SW,225,3.0,5.0,88,0.00,,,0.00,Rainwise IP-100,2013-09-22 17:19:00,
2013-09-22 10:24:00,62.0,58.0,29.76,NNW,337,0.0,4.0,87,0.00,,,0.00,Rainwise IP-100,2013-09-22 17:24:00,
2013-09-22 10:29:00,62.4,58.0,29.76,NNE,22,2.1,4.0,86,0.00,,,0.00,Rainwise IP-100,2013-09-22 17:29:00,
2013-09-22 10:34:00,62.9,58.0,29.76,WSW,247,4.2,4.2,85,0.00,,,0.00,Rainwise IP-100,2013-09-22 17:34:00,
2013-09-22 10:39:00,62.9,58.0,29.76,South,180,2.8,5.0,84,0.00,,,0.00,Rainwise IP-100,2013-09-22 17:39:00,
2013-09-22 10:44:00,62.3,57.0,29.77,WSW,247,3.7,8.0,84,0.00,,,0.00,Rainwise IP-100,2013-09-22 17:44:00,
2013-09-22 10:49:00,61.7,57.0,29.76,SW,225,4.7,8.0,85,0.00,,,0.00,Rainwise IP-100,2013-09-22 17:49:00,
2013-09-22 10:54:00,61.2,56.0,29.77,SW,225,3.0,7.0,85,0.00,,,0.00,Rainwise IP-100,2013-09-22 17:54:00,
2013-09-22 10:59:00,61.4,57.0,29.76,WSW,247,1.6,7.0,85,0.00,,,0.00,Rainwise IP-100,2013-09-22 17:59:00,
2013-09-22 11:04:00,61.7,57.0,29.76,WSW,247,3.5,7.0,85,0.00,,,0.00,Rainwise IP-100,2013-09-22 18:04:00,
2013-09-22 11:09:00,61.5,56.0,29.76,West,270,3.7,7.0,84,0.00,,,0.00,Rainwise IP-100,2013-09-22 18:09:00,
2013-09-22 11:14:00,61.8,56.0,29.77,West,270,3.5,8.0,83,0.00,,,0.00,Rainwise IP-100,2013-09-22 18:14:00,
2013-09-22 11:19:00,62.2,56.0,29.76,WNW,292,3.3,7.0,83,0.00,,,0.00,Rainwise IP-100,2013-09-22 18:19:00,
2013-09-22 11:24:00,62.3,56.0,29.76,West,270,7.2,7.2,81,0.00,,,0.00,Rainwise IP-100,2013-09-22 18:24:00,
2013-09-22 11:29:00,62.4,56.0,29.76,WSW,247,3.5,8.0,80,0.00,,,0.00,Rainwise IP-100,2013-09-22 18:29:00,
2013-09-22 11:34:00,62.9,56.0,29.75,West,270,6.1,8.0,79,0.00,,,0.00,Rainwise IP-100,2013-09-22 18:34:00,
2013-09-22 11:39:00,62.8,56.0,29.76,West,270,5.4,9.0,79,0.00,,,0.00,Rainwise IP-100,2013-09-22 18:39:00,
2013-09-22 11:44:00,62.5,56.0,29.76,WNW,292,4.2,8.0,79,0.00,,,0.00,Rainwise IP-100,2013-09-22 18:44:00,
2013-09-22 11:49:00,62.3,55.0,29.76,WNW,292,3.5,9.0,79,0.00,,,0.00,Rainwise IP-100,2013-09-22 18:49:00,
2013-09-22 11:54:00,62.0,55.0,29.76,WSW,247,7.5,8.0,79,0.00,,,0.00,Rainwise IP-100,2013-09-22 18:54:00,
2013-09-22 11:59:00,62.2,55.0,29.76,West,270,4.9,8.0,79,0.00,,,0.00,Rainwise IP-100,2013-09-22 18:59:00,
2013-09-22 12:04:00,62.4,55.0,29.76,WSW,247,3.7,8.0,78,0.00,,,0.00,Rainwise IP-100,2013-09-22 19:04:00,
2013-09-22 12:09:00,62.6,55.0,29.77,WSW,247,8.2,10.0,77,0.00,,,0.00,Rainwise IP-100,2013-09-22 19:09:00,
2013-09-22 12:15:00,62.3,54.0,29.77,SW,225,6.1,10.0,77,0.00,,,0.00,Rainwise IP-100,2013-09-22 19:15:00,
2013-09-22 12:20:00,62.2,55.0,29.77,SW,225,8.2,9.0,78,0.00,,,0.00,Rainwise IP-100,2013-09-22 19:20:00,
2013-09-22 12:25:00,62.5,55.0,29.76,WSW,247,5.8,11.0,77,0.00,,,0.00,Rainwise IP-100,2013-09-22 19:25:00,
2013-09-22 12:30:00,62.8,54.0,29.76,SW,225,5.4,10.0,76,0.00,,,0.00,Rainwise IP-100,2013-09-22 19:30:00,
2013-09-22 12:35:00,63.1,55.0,29.75,SW,225,6.8,11.0,75,0.00,,,0.00,Rainwise IP-100,2013-09-22 19:35:00,
2013-09-22 12:40:00,62.9,54.0,29.75,South,180,8.4,10.0,74,0.00,,,0.00,Rainwise IP-100,2013-09-22 19:40:00,
2013-09-22 12:45:00,62.7,54.0,29.76,SSW,202,7.2,11.0,74,0.00,,,0.00,Rainwise IP-100,2013-09-22 19:45:00,
2013-09-22 12:50:00,62.8,54.0,29.76,SSW,202,8.6,9.0,73,0.00,,,0.00,Rainwise IP-100,2013-09-22 19:50:00,
2013-09-22 12:55:00,62.9,54.0,29.76,SSW,202,7.5,11.0,74,0.00,,,0.00,Rainwise IP-100,2013-09-22 19:55:00,
2013-09-22 13:00:00,62.2,54.0,29.77,WSW,247,6.1,11.0,75,0.00,,,0.00,Rainwise IP-100,2013-09-22 20:00:00,
2013-09-22 13:05:00,62.0,54.0,29.77,SSW,202,7.0,12.0,76,0.00,,,0.00,Rainwise IP-100,2013-09-22 20:05:00,
2013-09-22 13:10:00,62.1,54.0,29.77,SW,225,7.5,10.0,77,0.00,,,0.00,Rainwise IP-100,2013-09-22 20:10:00,
2013-09-22 13:15:00,61.9,54.0,29.77,SSW,202,8.9,13.0,77,0.00,,,0.00,Rainwise IP-100,2013-09-22 20:15:00,
2013-09-22 13:20:00,61.2,54.0,29.77,SSW,202,4.7,14.0,78,0.00,,,0.00,Rainwise IP-100,2013-09-22 20:20:00,
2013-09-22 13:25:00,61.1,54.0,29.77,SW,225,3.7,12.0,79,0.00,,,0.00,Rainwise IP-100,2013-09-22 20:25:00,
2013-09-22 13:30:00,61.7,54.0,29.76,WSW,247,4.7,10.0,79,0.00,,,0.00,Rainwise IP-100,2013-09-22 20:30:00,
2013-09-22 13:35:00,62.0,55.0,29.77,SSW,202,7.0,11.0,78,0.00,,,0.00,Rainwise IP-100,2013-09-22 20:35:00,
2013-09-22 13:40:00,62.3,54.0,29.76,SW,225,6.8,11.0,77,0.00,,,0.00,Rainwise IP-100,2013-09-22 20:40:00,
2013-09-22 13:45:00,62.2,54.0,29.76,WSW,247,7.2,11.0,76,0.00,,,0.00,Rainwise IP-100,2013-09-22 20:45:00,
2013-09-22 13:50:00,62.4,54.0,29.76,SW,225,9.1,14.0,76,0.00,,,0.00,Rainwise IP-100,2013-09-22 20:50:00,
2013-09-22 13:55:00,62.6,54.0,29.76,SW,225,10.0,11.0,75,0.00,,,0.00,Rainwise IP-100,2013-09-22 20:55:00,
2013-09-22 14:00:00,62.5,54.0,29.76,WSW,247,5.8,12.0,75,0.00,,,0.00,Rainwise IP-100,2013-09-22 21:00:00,
2013-09-22 14:05:00,62.6,54.0,29.75,West,270,6.8,12.0,75,0.00,,,0.00,Rainwise IP-100,2013-09-22 21:05:00,
2013-09-22 14:10:00,62.6,54.0,29.76,SSW,202,4.2,12.0,75,0.00,,,0.00,Rainwise IP-100,2013-09-22 21:10:00,
2013-09-22 14:15:00,62.1,54.0,29.76,WSW,247,6.1,16.0,75,0.00,,,0.00,Rainwise IP-100,2013-09-22 21:15:00,
2013-09-22 14:20:00,62.0,54.0,29.76,SSW,202,3.5,11.0,76,0.00,,,0.00,Rainwise IP-100,2013-09-22 21:20:00,
2013-09-22 14:25:00,62.1,54.0,29.75,WSW,247,2.1,14.0,77,0.00,,,0.00,Rainwise IP-100,2013-09-22 21:25:00,
2013-09-22 14:30:00,62.3,54.0,29.74,SSW,202,4.0,13.0,77,0.00,,,0.00,Rainwise IP-100,2013-09-22 21:30:00,
2013-09-22 14:35:00,62.4,55.0,29.75,West,270,4.7,14.0,77,0.00,,,0.00,Rainwise IP-100,2013-09-22 21:35:00,
2013-09-22 14:40:00,62.3,54.0,29.75,SW,225,7.9,16.0,77,0.00,,,0.00,Rainwise IP-100,2013-09-22 21:40:00,
2013-09-22 14:45:00,62.3,55.0,29.74,SW,225,8.6,13.0,78,0.00,,,0.00,Rainwise IP-100,2013-09-22 21:45:00,
2013-09-22 14:50:00,62.4,55.0,29.75,WSW,247,6.1,12.0,78,0.00,,,0.00,Rainwise IP-100,2013-09-22 21:50:00,
2013-09-22 14:55:00,62.4,56.0,29.75,SW,225,4.7,11.0,79,0.00,,,0.00,Rainwise IP-100,2013-09-22 21:55:00,
2013-09-22 15:00:00,62.7,56.0,29.75,East,90,0.0,8.0,79,0.00,,,0.00,Rainwise IP-100,2013-09-22 22:00:00,
2013-09-22 15:05:00,63.1,56.0,29.75,SW,225,9.3,13.0,79,0.00,,,0.00,Rainwise IP-100,2013-09-22 22:05:00,
2013-09-22 15:10:00,63.0,56.0,29.75,South,180,2.6,10.0,79,0.00,,,0.00,Rainwise IP-100,2013-09-22 22:10:00,
2013-09-22 15:15:00,63.0,56.0,29.74,SW,225,8.2,15.0,79,0.00,,,0.00,Rainwise IP-100,2013-09-22 22:15:00,
2013-09-22 15:20:00,62.8,56.0,29.75,SSW,202,9.3,14.0,79,0.00,,,0.00,Rainwise IP-100,2013-09-22 22:20:00,
2013-09-22 15:25:00,62.7,56.0,29.75,SSW,202,5.6,14.0,80,0.00,,,0.00,Rainwise IP-100,2013-09-22 22:25:00,
2013-09-22 15:30:00,63.0,56.0,29.74,West,270,5.4,13.0,80,0.00,,,0.00,Rainwise IP-100,2013-09-22 22:30:00,
2013-09-22 15:35:00,63.2,56.0,29.74,SSW,202,4.9,12.0,79,0.00,,,0.00,Rainwise IP-100,2013-09-22 22:35:00,
2013-09-22 15:40:00,63.1,56.0,29.74,SSW,202,6.5,12.0,79,0.00,,,0.00,Rainwise IP-100,2013-09-22 22:40:00,
2013-09-22 15:45:00,63.2,56.0,29.74,WSW,247,5.4,12.0,79,0.00,,,0.00,Rainwise IP-100,2013-09-22 22:45:00,
2013-09-22 15:50:00,63.5,57.0,29.74,West,270,5.1,16.0,79,0.00,,,0.00,Rainwise IP-100,2013-09-22 22:50:00,
2013-09-22 15:55:00,63.5,56.0,29.75,SW,225,4.7,13.0,78,0.00,,,0.00,Rainwise IP-100,2013-09-22 22:55:00,
2013-09-22 16:00:00,63.5,56.0,29.74,WSW,247,4.4,11.0,78,0.00,,,0.00,Rainwise IP-100,2013-09-22 23:00:00,
2013-09-22 16:05:00,63.7,56.0,29.75,SSW,202,5.1,13.0,78,0.00,,,0.00,Rainwise IP-100,2013-09-22 23:05:00,
2013-09-22 16:10:00,63.5,56.0,29.74,SW,225,6.5,13.0,78,0.00,,,0.00,Rainwise IP-100,2013-09-22 23:10:00,
2013-09-22 16:15:00,63.3,56.0,29.75,SSW,202,1.6,10.0,79,0.00,,,0.00,Rainwise IP-100,2013-09-22 23:15:00,
2013-09-22 16:20:00,63.5,57.0,29.74,SSW,202,7.2,13.0,79,0.00,,,0.00,Rainwise IP-100,2013-09-22 23:20:00,
2013-09-22 16:25:00,63.7,56.0,29.74,SW,225,12.8,17.0,78,0.00,,,0.00,Rainwise IP-100,2013-09-22 23:25:00,
2013-09-22 16:30:00,63.6,56.0,29.74,WSW,247,3.3,17.0,78,0.00,,,0.00,Rainwise IP-100,2013-09-22 23:30:00,
2013-09-22 16:35:00,63.6,56.0,29.74,West,270,6.8,16.0,78,0.00,,,0.00,Rainwise IP-100,2013-09-22 23:35:00,
2013-09-22 16:40:00,63.8,56.0,29.74,South,180,14.9,17.0,78,0.00,,,0.00,Rainwise IP-100,2013-09-22 23:40:00,
2013-09-22 16:45:00,63.9,56.0,29.74,WNW,292,8.4,14.0,77,0.00,,,0.00,Rainwise IP-100,2013-09-22 23:45:00,
2013-09-22 16:50:00,63.7,56.0,29.74,WSW,247,2.6,16.0,77,0.00,,,0.00,Rainwise IP-100,2013-09-22 23:50:00,
2013-09-22 16:55:00,63.7,56.0,29.74,SSW,202,1.6,11.0,77,0.00,,,0.00,Rainwise IP-100,2013-09-22 23:55:00,
2013-09-22 17:00:00,64.0,56.0,29.75,West,270,10.0,12.0,77,0.00,,,0.00,Rainwise IP-100,2013-09-23 00:00:00,
2013-09-22 17:05:00,63.9,56.0,29.74,SSW,202,9.8,11.0,77,0.00,,,0.00,Rainwise IP-100,2013-09-23 00:05:00,
2013-09-22 17:10:00,63.7,56.0,29.74,WNW,292,4.0,13.0,78,0.00,,,0.00,Rainwise IP-100,2013-09-23 00:10:00,
2013-09-22 17:15:00,63.5,56.0,29.74,SSE,157,8.4,11.0,78,0.00,,,0.00,Rainwise IP-100,2013-09-23 00:15:00,
2013-09-22 17:20:00,63.3,56.0,29.74,West,270,4.2,15.0,79,0.00,,,0.00,Rainwise IP-100,2013-09-23 00:20:00,
2013-09-22 17:25:00,63.1,56.0,29.74,SSW,202,8.4,16.0,79,0.00,,,0.00,Rainwise IP-100,2013-09-23 00:25:00,
2013-09-22 17:30:00,63.1,56.0,29.74,SSW,202,6.3,12.0,80,0.00,,,0.00,Rainwise IP-100,2013-09-23 00:30:00,
2013-09-22 17:35:00,63.0,56.0,29.74,SSW,202,10.3,14.0,80,0.00,,,0.00,Rainwise IP-100,2013-09-23 00:35:00,
2013-09-22 17:40:00,62.8,56.0,29.74,WSW,247,4.4,14.0,81,0.00,,,0.00,Rainwise IP-100,2013-09-23 00:40:00,
2013-09-22 17:45:00,62.9,57.0,29.74,WSW,247,6.5,14.0,82,0.00,,,0.00,Rainwise IP-100,2013-09-23 00:45:00,
2013-09-22 17:50:00,62.9,57.0,29.74,WSW,247,9.3,13.0,82,0.00,,,0.00,Rainwise IP-100,2013-09-23 00:50:00,
2013-09-22 17:55:00,62.7,57.0,29.74,SW,225,16.6,16.6,82,0.00,,,0.00,Rainwise IP-100,2013-09-23 00:55:00,
2013-09-22 18:00:00,62.5,57.0,29.74,SSW,202,5.8,16.0,82,0.00,,,0.00,Rainwise IP-100,2013-09-23 01:00:00,
2013-09-22 18:05:00,62.5,57.0,29.74,SW,225,8.4,13.0,83,0.00,,,0.00,Rainwise IP-100,2013-09-23 01:05:00,
2013-09-22 18:10:00,62.4,57.0,29.75,WSW,247,13.1,13.1,83,0.00,,,0.00,Rainwise IP-100,2013-09-23 01:10:00,
2013-09-22 18:15:00,62.1,56.0,29.74,WSW,247,4.2,13.0,83,0.00,,,0.00,Rainwise IP-100,2013-09-23 01:15:00,
2013-09-22 18:20:00,61.9,57.0,29.74,SSW,202,9.6,12.0,84,0.00,,,0.00,Rainwise IP-100,2013-09-23 01:20:00,
2013-09-22 18:25:00,61.8,56.0,29.75,SSW,202,10.0,15.0,84,0.00,,,0.00,Rainwise IP-100,2013-09-23 01:25:00,
2013-09-22 18:30:00,61.7,57.0,29.75,WSW,247,5.8,11.0,85,0.00,,,0.00,Rainwise IP-100,2013-09-23 01:30:00,
2013-09-22 18:35:00,61.6,57.0,29.74,SW,225,4.4,16.0,85,0.00,,,0.00,Rainwise IP-100,2013-09-23 01:35:00,
2013-09-22 18:40:00,61.5,57.0,29.75,SSW,202,3.5,9.0,85,0.00,,,0.00,Rainwise IP-100,2013-09-23 01:40:00,
2013-09-22 18:45:00,61.3,56.0,29.75,WSW,247,7.5,11.0,86,0.00,,,0.00,Rainwise IP-100,2013-09-23 01:45:00,
2013-09-22 18:50:00,61.1,57.0,29.75,WSW,247,8.6,10.0,87,0.00,,,0.00,Rainwise IP-100,2013-09-23 01:50:00,
2013-09-22 18:55:00,60.9,57.0,29.75,WSW,247,4.4,10.0,87,0.00,,,0.00,Rainwise IP-100,2013-09-23 01:55:00,
2013-09-22 19:00:00,60.8,57.0,29.75,West,270,6.5,11.0,88,0.00,,,0.00,Rainwise IP-100,2013-09-23 02:00:00,
2013-09-22 19:05:00,60.6,57.0,29.75,SSW,202,5.1,8.0,88,0.00,,,0.00,Rainwise IP-100,2013-09-23 02:05:00,
2013-09-22 19:10:00,60.6,57.0,29.75,WSW,247,5.1,11.0,89,0.00,,,0.00,Rainwise IP-100,2013-09-23 02:10:00,
2013-09-22 19:15:00,60.3,56.0,29.75,WNW,292,9.1,10.0,89,0.00,,,0.00,Rainwise IP-100,2013-09-23 02:15:00,
2013-09-22 19:21:00,60.2,57.0,29.75,SW,225,8.6,11.0,90,0.00,,,0.00,Rainwise IP-100,2013-09-23 02:21:00,
2013-09-22 19:26:00,60.1,57.0,29.75,SSW,202,11.7,11.7,90,0.00,,,0.00,Rainwise IP-100,2013-09-23 02:26:00,
2013-09-22 19:31:00,60.1,57.0,29.75,SSW,202,5.4,11.0,90,0.00,,,0.00,Rainwise IP-100,2013-09-23 02:31:00,
2013-09-22 19:36:00,60.1,57.0,29.75,SSW,202,6.8,12.0,91,0.00,,,0.00,Rainwise IP-100,2013-09-23 02:36:00,
2013-09-22 19:41:00,60.1,57.0,29.75,SSW,202,4.9,8.0,91,0.00,,,0.00,Rainwise IP-100,2013-09-23 02:41:00,
2013-09-22 19:46:00,60.1,57.0,29.75,SW,225,6.1,10.0,91,0.00,,,0.00,Rainwise IP-100,2013-09-23 02:46:00,
2013-09-22 19:51:00,60.0,57.0,29.75,WSW,247,4.2,9.0,91,0.00,,,0.00,Rainwise IP-100,2013-09-23 02:51:00,
2013-09-22 19:56:00,60.0,57.0,29.75,SSW,202,8.4,12.0,91,0.00,,,0.00,Rainwise IP-100,2013-09-23 02:56:00,
2013-09-22 20:01:00,59.9,57.0,29.75,SW,225,6.1,12.0,91,0.00,,,0.00,Rainwise IP-100,2013-09-23 03:01:00,
2013-09-22 20:06:00,59.8,56.0,29.75,SW,225,4.9,10.0,91,0.00,,,0.00,Rainwise IP-100,2013-09-23 03:06:00,
2013-09-22 20:11:00,59.7,56.0,29.75,WSW,247,4.0,9.0,91,0.00,,,0.00,Rainwise IP-100,2013-09-23 03:11:00,
2013-09-22 20:16:00,59.6,56.0,29.75,WSW,247,2.6,8.0,91,0.00,,,0.00,Rainwise IP-100,2013-09-23 03:16:00,
2013-09-22 20:21:00,59.6,57.0,29.76,SSW,202,4.7,6.0,92,0.00,,,0.00,Rainwise IP-100,2013-09-23 03:21:00,
2013-09-22 20:26:00,59.6,56.0,29.76,SSW,202,10.0,10.0,91,0.00,,,0.00,Rainwise IP-100,2013-09-23 03:26:00,
2013-09-22 20:31:00,59.7,56.0,29.76,WSW,247,4.4,11.0,91,0.00,,,0.00,Rainwise IP-100,2013-09-23 03:31:00,
2013-09-22 20:36:00,59.9,57.0,29.76,SW,225,1.6,6.0,90,0.00,,,0.00,Rainwise IP-100,2013-09-23 03:36:00,
2013-09-22 20:41:00,59.9,56.0,29.76,West,270,2.6,6.0,89,0.00,,,0.00,Rainwise IP-100,2013-09-23 03:41:00,
2013-09-22 20:46:00,60.0,56.0,29.77,SSW,202,4.0,6.0,88,0.00,,,0.00,Rainwise IP-100,2013-09-23 03:46:00,
2013-09-22 20:51:00,60.1,56.0,29.77,SSW,202,2.6,5.0,88,0.00,,,0.00,Rainwise IP-100,2013-09-23 03:51:00,
2013-09-22 20:56:00,60.0,56.0,29.77,WSW,247,2.6,4.0,88,0.00,,,0.00,Rainwise IP-100,2013-09-23 03:56:00,
2013-09-22 21:01:00,60.0,56.0,29.77,WSW,247,3.7,8.0,87,0.00,,,0.00,Rainwise IP-100,2013-09-23 04:01:00,
2013-09-22 21:06:00,60.0,56.0,29.77,SSW,202,4.9,7.0,87,0.00,,,0.00,Rainwise IP-100,2013-09-23 04:06:00,
2013-09-22 21:11:00,59.8,55.0,29.77,WSW,247,3.7,6.0,87,0.00,,,0.00,Rainwise IP-100,2013-09-23 04:11:00,
2013-09-22 21:16:00,59.6,56.0,29.77,South,180,0.0,5.0,88,0.00,,,0.00,Rainwise IP-100,2013-09-23 04:16:00,
2013-09-22 21:21:00,59.4,56.0,29.77,SSW,202,4.2,4.2,89,0.00,,,0.00,Rainwise IP-100,2013-09-23 04:21:00,
2013-09-22 21:26:00,59.4,56.0,29.77,SW,225,5.6,7.0,89,0.00,,,0.00,Rainwise IP-100,2013-09-23 04:26:00,
2013-09-22 21:31:00,59.6,56.0,29.77,WSW,247,3.3,7.0,89,0.00,,,0.00,Rainwise IP-100,2013-09-23 04:31:00,
2013-09-22 21:36:00,59.7,56.0,29.77,SW,225,5.6,7.0,89,0.00,,,0.00,Rainwise IP-100,2013-09-23 04:36:00,
2013-09-22 21:41:00,59.7,56.0,29.77,SSW,202,2.6,8.0,88,0.00,,,0.00,Rainwise IP-100,2013-09-23 04:41:00,
2013-09-22 21:46:00,59.6,56.0,29.77,SSW,202,2.1,9.0,88,0.00,,,0.00,Rainwise IP-100,2013-09-23 04:46:00,
2013-09-22 21:51:00,59.4,56.0,29.77,SW,225,3.7,7.0,89,0.00,,,0.00,Rainwise IP-100,2013-09-23 04:51:00,
2013-09-22 21:56:00,59.3,56.0,29.77,SSW,202,4.4,7.0,89,0.00,,,0.00,Rainwise IP-100,2013-09-23 04:56:00,
2013-09-22 22:01:00,59.2,56.0,29.77,SW,225,7.5,10.0,90,0.00,,,0.00,Rainwise IP-100,2013-09-23 05:01:00,
2013-09-22 22:06:00,59.1,56.0,29.77,WSW,247,7.7,9.0,90,0.00,,,0.00,Rainwise IP-100,2013-09-23 05:06:00,
2013-09-22 22:11:00,59.0,56.0,29.77,SW,225,3.3,9.0,90,0.00,,,0.00,Rainwise IP-100,2013-09-23 05:11:00,
2013-09-22 22:16:00,59.1,56.0,29.77,SSW,202,3.0,8.0,91,0.00,,,0.00,Rainwise IP-100,2013-09-23 05:16:00,
2013-09-22 22:21:00,59.2,56.0,29.77,SSW,202,5.8,8.0,90,0.00,,,0.00,Rainwise IP-100,2013-09-23 05:21:00,
2013-09-22 22:26:00,59.3,56.0,29.77,SSW,202,2.8,8.0,90,0.00,,,0.00,Rainwise IP-100,2013-09-23 05:26:00,
2013-09-22 22:31:00,59.3,56.0,29.77,SSW,202,4.7,7.0,90,0.00,,,0.00,Rainwise IP-100,2013-09-23 05:31:00,
2013-09-22 22:36:00,59.3,56.0,29.77,SW,225,7.2,7.2,90,0.00,,,0.00,Rainwise IP-100,2013-09-23 05:36:00,
2013-09-22 22:41:00,59.3,56.0,29.77,SW,225,4.4,8.0,90,0.00,,,0.00,Rainwise IP-100,2013-09-23 05:41:00,
2013-09-22 22:46:00,59.2,56.0,29.78,SSW,202,2.8,7.0,90,0.00,,,0.00,Rainwise IP-100,2013-09-23 05:46:00,
2013-09-22 22:51:00,59.1,56.0,29.77,SSW,202,5.8,7.0,90,0.00,,,0.00,Rainwise IP-100,2013-09-23 05:51:00,
2013-09-22 22:56:00,59.0,56.0,29.77,WSW,247,3.0,9.0,91,0.00,,,0.00,Rainwise IP-100,2013-09-23 05:56:00,
2013-09-22 23:01:00,59.0,56.0,29.77,SSW,202,3.3,7.0,91,0.00,,,0.00,Rainwise IP-100,2013-09-23 06:01:00,
2013-09-22 23:06:00,59.0,56.0,29.77,SW,225,4.0,5.0,91,0.00,,,0.00,Rainwise IP-100,2013-09-23 06:06:00,
2013-09-22 23:11:00,59.0,56.0,29.77,SSW,202,1.4,5.0,91,0.00,,,0.00,Rainwise IP-100,2013-09-23 06:11:00,
2013-09-22 23:16:00,59.0,56.0,29.78,SSW,202,1.9,4.0,91,0.00,,,0.00,Rainwise IP-100,2013-09-23 06:16:00,
2013-09-22 23:21:00,58.9,56.0,29.77,SSE,157,1.2,3.0,91,0.00,,,0.00,Rainwise IP-100,2013-09-23 06:21:00,
2013-09-22 23:26:00,58.8,56.0,29.78,SW,225,2.1,3.0,91,0.00,,,0.00,Rainwise IP-100,2013-09-23 06:26:00,
2013-09-22 23:31:00,58.8,56.0,29.77,SW,225,4.7,5.0,91,0.00,,,0.00,Rainwise IP-100,2013-09-23 06:31:00,
2013-09-22 23:36:00,58.9,56.0,29.77,SSW,202,1.6,5.0,91,0.00,,,0.00,Rainwise IP-100,2013-09-23 06:36:00,
2013-09-22 23:41:00,58.9,56.0,29.78,SW,225,1.9,3.0,91,0.00,,,0.00,Rainwise IP-100,2013-09-23 06:41:00,
2013-09-22 23:46:00,58.9,56.0,29.77,SSW,202,2.3,4.0,91,0.00,,,0.00,Rainwise IP-100,2013-09-23 06:46:00,
2013-09-22 23:51:00,58.7,56.0,29.78,SSW,202,0.0,4.0,91,0.00,,,0.00,Rainwise IP-100,2013-09-23 06:51:00,
2013-09-22 23:56:00,58.6,56.0,29.77,SW,225,1.4,3.0,91,0.00,,,0.00,Rainwise IP-100,2013-09-23 06:56:00,